Regional Weather Roundup
Issued by NWS Sioux Falls, SD

Home | Current Version | Previous Version | Graphics & Text | Print | Product List | Glossary Off
Versions: 1 2 3 4 5 6 7 8 9 10 11 12 13 14 15 16 17 18 19 20 21 22 23 24 25 26 27 28 29 30 31 32 33 34 35 36 37 38 39 40 41 42 43 44 45 46 47 48 49 50

000
ASUS43 KFSD 201810
RWRFSD

WEATHER ROUNDUP FOR SE SOUTH DAKOTA/SW MINNESOTA/NW IOWA
NATIONAL WEATHER SERVICE SIOUX FALLS SD
1200 PM CST MON NOV 20 2017

NOTE: "FAIR" INDICATES FEW OR NO CLOUDS BELOW 12,000 FEET WITH NO
SIGNIFICANT WEATHER AND OR OBSTRUCTIONS TO VISIBILITY.


SDZ038>040-050-052>070-201900-
SOUTHEAST SOUTH DAKOTA

CITY           SKY/WX    TMP DP  RH WIND       PRES   REMARKS
BROOKINGS      CLOUDY    43  26  51 W8        29.51S
CHAMBERLAIN    CLOUDY    48  25  40 W7        29.54F
6HR MIN TEMP:  30; 6HR MAX TEMP:  48;

HURON          CLOUDY    44  29  55 S3        29.50F
6HR MIN TEMP:  24; 6HR MAX TEMP:  44;

MADISON        FAIR      43  25  49 W7        29.51S
MITCHELL       CLOUDY    49  25  39 W12       29.54F
6HR MIN TEMP:  24; 6HR MAX TEMP:  49;

SIOUX FALLS    CLOUDY    44  27  51 SW8       29.53F
6HR MIN TEMP:  28; 6HR MAX TEMP:  44;

WINNER         FAIR      55  24  30 SW7       29.55F
YANKTON        CLOUDY    47  24  40 SW8       29.56F
$$

MNZ071-072-080-081-089-090-097-098-201900-
SOUTHWEST MINNESOTA

CITY           SKY/WX    TMP DP  RH WIND       PRES   REMARKS
FAIRMONT       CLOUDY    47  30  51 SW14      29.53F
JACKSON        CLOUDY    45  27  49 SW17G23   29.52F
LUVERNE        CLOUDY    43  25  49 SW9       29.53F
MARSHALL       CLOUDY    44  26  49 W16       29.47F
6HR MIN TEMP:  33; 6HR MAX TEMP:  44;

MONTEVIDEO     CLOUDY    43  30  61 W3        29.46F
PIPESTONE      CLOUDY    41  27  56 SW9       29.50F
REDWOOD FALLS  CLOUDY    46  27  47 SW10      29.48F
WINDOM         CLOUDY    46  27  46 SW22      29.49F
WORTHINGTON    CLOUDY    43  26  51 SW16      29.50F
$$

IAZ001>003-012>014-020>022-031-032-NEZ013-014-SDZ071-201900-
NORTHWEST IOWA

CITY           SKY/WX    TMP DP  RH WIND       PRES   REMARKS
CHEROKEE       CLOUDY    47  29  48 S14       29.57F
DENISON        CLOUDY    52  27  37 SW16G28   29.62F
ESTHERVILLE    CLOUDY    46  29  51 SW18      29.53F
LE MARS        CLOUDY    46  28  49 S13G21    29.56F
ORANGE CITY    CLOUDY    46  30  53 SW15      29.55F
SHELDON        CLOUDY    45  27  49 MISG      29.52F
SIOUX CITY     CLOUDY    49  29  46 SW13      29.59F
6HR MIN TEMP:  26; 6HR MAX TEMP:  50;

SPENCER        MOSUNNY   48  28  46 SW14      29.54F
6HR MIN TEMP:  27; 6HR MAX TEMP:  48;

STORM LAKE     CLOUDY    48  27  43 SW22      29.58F
$$

ABBREVIATIONS USED IN REMARKS
   TC - TEMPERATURE IN CELSIUS
  WCI - WIND CHILL INDEX
   HX - HEAT INDEX
  VSB - VISIBILITY





USA.gov is the U.S. government's official web portal to all federal, state and local government web resources and services.